#timestamp,LO_Frequency,Hit,StdDev 
1567612815.2,286047001.3,N
1567612835.9,286047004.3,N
1567612855.7,286047002.2,N
1567612875.6,286047000.6,N
1567612895.4,286046998.6,N
1567612915.2,286047001.1,N
1567612935.1,286046998.3,N
1567612936.0,286046998.3,N
1567612955.8,286046998.5,N
1567612975.7,286046999.4,N
1567612995.5,286046997.3,N
1567613015.3,286046997.9,N
1567613035.2,286046999.0,N
1567613055.0,286046996.7,N
1567613055.9,286046996.7,N
1567613075.7,286046999.5,N
1567613095.6,286046998.7,N
1567613115.4,286046997.1,N
1567613135.3,286046995.7,N
1567613155.1,286046995.6,N
1567613156.0,286046995.6,N
1567613175.8,286046996.6,N
1567613195.7,286047000.0,N
1567613215.5,286047001.0,N
1567613235.3,286047000.8,N
1567613255.2,286047000.6,N
1567613275.0,286047002.3,N
1567613275.9,286047002.3,N
1567613295.8,286047000.2,N
1567613315.6,286047002.4,N
1567613335.4,286046999.9,N
1567613355.3,286047000.6,N
1567613375.1,286046998.7,N
1567613395.8,286046998.9,N
1567613415.7,286046998.5,N
1567613435.5,286047000.5,N
1567613455.4,286047001.2,N
1567613475.2,286046998.5,N
1567613495.0,286046998.7,N
1567613495.9,286046998.7,N
1567613515.8,286046997.1,N
1567613535.6,286046998.7,N
1567613555.5,286046999.3,N
1567613575.3,286046998.9,N
1567613595.1,286046999.2,N
1567613615.9,286046999.2,N
1567613635.7,286046999.3,N
1567613655.5,286046998.3,N
1567613675.4,286046996.7,N
1567613695.2,286046996.5,N
1567613715.1,286046999.6,N
1567613716.0,286046999.6,N
1567613735.8,286046996.6,N
1567613755.6,286046997.2,N
1567613775.5,286046997.7,N
1567613795.3,286046997.1,N
1567613815.1,286046995.0,Y
1567613835.9,286046997.6,P
1567613855.7,286046997.3,P
1567613875.6,286046995.4,P
1567613895.4,286046993.8,Y
1567613915.2,286046999.0,P
1567613935.1,286046997.3,P
1567613936.0,286046997.3,P
1567613955.8,286046995.8,Y
1567613975.6,286046996.5,P
1567613995.5,286046998.4,N
1567614015.3,286046998.1,N
1567614035.2,286046999.0,N
1567614055.9,286046998.3,N
1567614075.7,286046998.8,N
1567614095.6,286047001.2,N
1567614115.4,286047002.3,N
1567614135.2,286047002.7,N
1567614155.1,286047000.9,N
1567614156.0,286047000.9,N
1567614175.8,286047001.1,N
1567614195.7,286046999.2,N
1567614215.5,286046999.2,N
1567614235.3,286046999.5,N
1567614255.2,286046996.6,N
1567614275.0,286046999.1,N
1567614275.9,286046999.1,N
1567614295.7,286046996.8,N
1567614315.6,286046995.0,N
1567614335.4,286046996.6,N
1567614355.3,286046996.9,N
1567614375.1,286046996.6,N
1567614395.8,286046996.9,N
1567614415.7,286046999.3,N
1567614435.5,286046998.3,N
1567614455.3,286046999.1,N
1567614475.2,286046999.2,N
1567614495.0,286046996.6,N
1567614495.9,286046996.6,N
1567614515.8,286046999.1,N
1567614535.6,286046999.4,N
1567614555.4,286046998.9,N
1567614575.3,286046998.2,N
1567614595.1,286047000.5,N
1567614615.8,286046998.6,N
1567614635.7,286046996.6,N
1567614655.5,286046998.7,N
1567614675.4,286046999.2,N
1567614695.2,286046998.4,N
1567614715.0,286046998.7,N
1567614715.9,286046998.7,N
1567614735.8,286047000.6,N
1567614755.6,286047000.6,N
1567614775.4,286047002.8,N
1567614795.3,286046998.3,N
1567614815.1,286046998.5,N
1567614835.9,286046998.3,N
1567614855.7,286046999.3,N
1567614875.5,286046998.6,N
1567614895.4,286046999.6,N
1567614915.2,286046999.2,N
1567614935.1,286046999.6,N
1567614936.0,286046999.6,N
1567614955.8,286046999.1,N
1567614975.6,286046996.5,N
1567614995.5,286046998.7,N
1567615015.3,286047001.0,N
1567615035.1,286046999.3,N
1567615055.9,286046998.5,N
1567615075.7,286046999.1,N
1567615095.6,286046998.4,N
1567615115.4,286047001.2,N
1567615135.2,286046998.4,N
1567615155.1,286046999.0,N
1567615156.0,286046999.0,N
1567615175.8,286046999.5,N
1567615195.7,286046999.5,N
1567615215.5,286046996.6,Y
1567615235.3,286046998.4,P
1567615255.2,286047001.1,N
1567615275.0,286046998.2,N
1567615275.9,286046998.2,N
1567615295.8,286047000.5,N
1567615315.6,286047001.2,N
1567615335.4,286047001.2,N
1567615355.3,286047002.5,N
1567615375.1,286047002.6,N
1567615395.8,286046999.7,N
1567615415.7,286047000.5,N
1567615435.5,286047000.3,N
1567615455.4,286047000.1,N
1567615475.2,286047000.8,N
1567615495.0,286047000.8,N
1567615495.9,286047000.8,N
1567615515.8,286046998.4,N
1567615535.6,286046998.2,N
1567615555.5,286046998.6,N
1567615575.3,286046998.2,N
1567615595.1,286046998.6,N
1567615615.9,286046999.0,N
1567615635.7,286046998.4,N
1567615655.5,286046998.3,N
1567615675.4,286047001.1,N
1567615695.2,286047001.2,N
1567615715.0,286046998.3,N
1567615716.0,286046998.3,N
1567615735.8,286046998.5,N
1567615755.6,286046996.9,N
1567615775.5,286046996.8,N
1567615795.3,286046999.4,N
1567615815.1,286046996.7,N
1567615835.9,286046999.3,N
1567615855.7,286046995.0,Y
1567615875.6,286046997.5,P
1567615895.4,286046997.9,N
1567615915.2,286046993.6,P
1567615935.1,286046993.4,Y
1567615936.0,286046993.4,P
1567615955.8,286046999.5,N
1567615975.6,286046997.0,N
1567615995.5,286046996.5,N
1567616015.3,286046997.0,N
1567616035.2,286046999.1,N
1567616055.9,286046998.5,N
1567616075.7,286046996.5,N
1567616095.6,286046997.7,N
1567616115.4,286046995.0,Y
1567616135.2,286046999.1,P
1567616155.1,286047001.1,N
1567616156.0,286047001.1,N
1567616175.8,286047000.4,N
1567616195.7,286047004.3,N
1567616215.5,286047003.2,N
1567616235.3,286047003.5,N
1567616255.2,286047001.6,N
1567616275.0,286047002.4,N
1567616275.9,286047002.4,N
1567616295.7,286047004.4,N
1567616315.6,286047003.8,N
1567616335.4,286047005.6,N
1567616355.3,286047003.4,N
1567616375.1,286047004.4,N
1567616376.0,286047004.4,N
1567616395.8,286047001.7,N
